Regional Weather Roundup
Issued by NWS

Home | Current Version | Previous Version | Text Only | Print | Product List | Glossary On
Versions: 1 2 3 4 5 6 7 8 9 10 11 12 13 14 15 16 17 18 19 20 21 22 23 24 25 26 27 28 29 30 31 32 33 34 35 36 37 38 39 40 41 42 43 44 45 46 47 48 49 50
000
ASUS43 KTOP 020159
RWRKS

WEATHER ROUNDUP FOR KANSAS
NATIONAL WEATHER SERVICE GOODLAND KS
900 PM CDT MON SEP 01 2014

NOTE:  "FAIR" INDICATES FEW OR NO CLOUDS BELOW 12,000 FEET WITH NO
SIGNIFICANT WEATHER AND/OR OBSTRUCTIONS TO VISIBILITY.

KSZ001>006-013>018-027>032-041>047-020300-
NORTHWEST KANSAS

CITY           SKY/WX    TMP DP  RH WIND       PRES   REMARKS
GOODLAND       CLEAR     65  53  65 SE6       29.96R
HAYS           CLEAR     70  61  73 E6        29.90S
HILL CITY      CLEAR     68  59  73 E3        29.91S
RUSSELL        CLEAR     69  65  86 E6        29.88R
$$

KSZ061>065-074>080-084>089-020300-
SOUTHWEST KANSAS

CITY           SKY/WX    TMP DP  RH WIND       PRES   REMARKS
DODGE CITY     CLEAR     70  63  78 E8        29.90F
ELKHART          N/A     76  60  57 E13         N/A
GARDEN CITY    CLEAR     71  60  68 E8        29.92R
GREAT BEND     CLEAR     72  64  78 NE5       29.89R
LIBERAL        CLEAR     79  63  57 E7        29.92R
$$

KSZ066>073-081>083-090>101-020300-
SOUTHEAST KANSAS

CITY           SKY/WX    TMP DP  RH WIND       PRES   REMARKS
CHANUTE        LGT RAIN  76  72  87 SE10      29.84R
COFFEYVILLE    CLOUDY    80  72  76 SE10      29.77R
HUTCHINSON     MOCLDY    74  66  76 NE7       29.86R
MEDICINE LODGE   N/A     75  68  78 N12       29.84R
NEWTON         CLOUDY    73  64  73 E6        29.91R
PARSONS        TSTM      74  71  91 E6G17     29.83F
WICHITA INTL   MOCLDY    78  68  71 NE22      29.84S
WICHITA JABRA  MOCLDY    74  69  85 NE10      29.85S
WICHITA MCCONL CLOUDY    75  75 100 NE10      29.85S
WINFIELD       RAIN      71  68  90 N8        29.82R
$$

KSZ007>012-019>026-033>040-048>060-102>105-020300-
NORTHEAST KANSAS

CITY           SKY/WX    TMP DP  RH WIND       PRES   REMARKS
CONCORDIA      CLEAR     69  61  75 CALM      29.88S
EMPORIA        CLOUDY    73  69  87 NE6       29.85S
LAWRENCE       LGT RAIN N/A N/A N/A W15       29.91R
MANHATTAN      PTCLDY    71  69  93 SW3       29.85S
OLATHE IND     MOCLDY    74  69  85 E5        29.84F
OLATHE EXE     CLOUDY    73  68  84 E5        29.83F
SALINA         CLEAR     76  67  73 E3        29.86S
TOPEKA BILLARD MOCLDY    72  70  93 E5        29.86S
TOPEKA FORBES  CLOUDY    71  69  93 NE6       29.86R
$$



USA.gov is the U.S. government's official web portal to all federal, state and local government web resources and services.